This demonstration page uses our WeatherBlox Daily Observations layout. Learn more.

Hourly Observations for June 10, 2016

Temp ( °F °C ) Dew Point ( °F °C ) Humidity (%) Winds ( mph kmh ) Pressure ( in mb ) Visibility ( mi km ) Precip ( " mm )
12:15 am 00:15 Clear 76 24.5 64 17.8 66 66 S 12 19 29.71 1006 10 16.09344 0 0
12:35 am 00:35 Clear 76 24.3 64 17.7 67 67 S 9 15 29.71 1006 10 16.09344 0 0
12:55 am 00:55 Clear 76 24.2 64 17.5 66 66 S 9 15 29.71 1006 10 16.09344 0 0
1:15 am 01:15 Clear 75 24 64 17.5 67 67 S 9 15 29.71 1006 10 16.09344 0 0
1:35 am 01:35 Clear 75 23.7 64 17.5 68 68 S 10 17 29.71 1006 10 16.09344 0 0
1:55 am 01:55 Clear 73 23 63 17.3 70 70 S 8 13 29.71 1006 10 16.09344 0 0
2:15 am 02:15 Clear 74 23.2 63 17.1 69 69 S 8 13 29.71 1006 10 16.09344 0 0
2:35 am 02:35 Clear 73 22.6 63 17.1 71 71 S 8 13 29.71 1006 10 16.09344 0 0
2:55 am 02:55 Clear 73 22.5 63 17.1 72 72 S 9 15 29.71 1006 10 16.09344 0 0
3:15 am 03:15 Clear 73 22.7 63 17 70 70 S 10 17 29.71 1006 10 16.09344 0 0
3:35 am 03:35 Clear 73 22.5 62 16.7 70 70 S 9 15 29.71 1006 10 16.09344 0 0
3:55 am 03:55 Clear 73 22.5 62 16.6 69 69 S 9 15 29.71 1006 10 16.09344 0 0
4:15 am 04:15 Clear 73 22.5 62 16.5 69 69 S 10 17 29.71 1006 10 16.09344 0 0
4:35 am 04:35 Clear 72 22.2 61 16.3 69 69 S 13 20 29.71 1006 10 16.09344 0 0
4:55 am 04:55 Clear 72 22 62 16.5 71 71 S 12 19 29.71 1006 10 16.09344 0 0
5:15 am 05:15 Clear 72 22 62 16.5 71 71 S 12 19 29.71 1006 10 16.09344 0 0
5:35 am 05:35 Clear 71 21.6 61 16.3 72 72 SSW 9 15 29.71 1006 10 16.09344 0 0
5:55 am 05:55 Clear 71 21.4 62 16.5 74 74 S 8 13 29.77 1008 10 16.09344 0 0
6:15 am 06:15 Sunny 70 21.2 62 16.5 75 75 S 10 17 29.77 1008 10 16.09344 0 0
6:35 am 06:35 Sunny 70 21.2 62 16.5 75 75 S 9 15 29.77 1008 10 16.09344 0 0
6:55 am 06:55 Sunny 70 21.1 62 16.6 76 76 S 9 15 29.77 1008 10 16.09344 0 0
7:15 am 07:15 Sunny 71 21.5 62 16.8 75 75 S 9 15 29.77 1008 10 16.09344 0 0
7:35 am 07:35 Sunny 71 21.9 62 16.8 73 73 S 12 19 29.77 1008 10 16.09344 0 0
7:55 am 07:55 Sunny 73 22.5 62 16.9 71 71 S 13 20 29.77 1008 10 16.09344 0 0
8:15 am 08:15 Sunny 73 23 63 17 69 69 S 14 22 29.77 1008 10 16.09344 0 0
8:35 am 08:35 Sunny 75 23.9 62 16.7 64 64 S 15 24 29.77 1008 10 16.09344 0 0
8:55 am 08:55 Sunny 76 24.5 62 16.7 62 62 SSW 12 19 29.77 1008 10 16.09344 0 0
9:15 am 09:15 Sunny 77 25.1 62 16.4 59 59 SW 13 20 29.77 1008 10 16.09344 0 0
9:35 am 09:35 Sunny 78 25.8 62 16.4 56 56 SSW 9 15 29.74 1007 10 16.09344 0 0
9:55 am 09:55 Sunny 79 26 62 16.5 56 56 S 13 20 29.74 1007 10 16.09344 0 0
10:15 am 10:15 Sunny 80 26.5 62 16.8 55 55 S 13 20 29.77 1008 10 16.09344 0 0
10:35 am 10:35 Sunny 81 27 62 16.8 54 54 SSW 8 13 29.74 1007 10 16.09344 0 0
10:55 am 10:55 Sunny 82 27.5 62 16.5 51 51 S 13 20 29.77 1008 10 16.09344 0 0
11:15 am 11:15 Sunny 82 28 62 16.6 50 50 SSW 12 19 29.77 1008 10 16.09344 0 0
11:35 am 11:35 Sunny 83 28.3 62 16.5 49 49 S 16 26 29.77 1008 10 16.09344 0 0
11:55 am 11:55 Sunny 84 28.8 62 16.6 48 48 S 14 22 29.77 1008 10 16.09344 0 0
12:15 pm 12:15 Sunny 85 29.3 63 17 47 47 S 14 22 29.77 1008 10 16.09344 0 0
12:35 pm 12:35 Sunny 85 29.5 62 16.8 46 46 S 9 15 29.77 1008 10 16.09344 0 0
12:55 pm 12:55 Sunny 87 30.3 61 16.3 43 43 SSW 14 22 29.74 1007 10 16.09344 0 0
1:15 pm 13:15 Sunny 87 30.7 61 16.1 41 41 SSW 14 22 29.74 1007 10 16.09344 0 0
1:35 pm 13:35 Sunny 88 31 60 15.7 40 40 S 15 24 29.74 1007 10 16.09344 0 0
1:55 pm 13:55 Sunny 89 31.9 61 16 38 38 S 17 28 29.74 1007 10 16.09344 0 0
2:15 pm 14:15 Sunny 90 32 61 15.9 38 38 SSW 16 26 29.74 1007 10 16.09344 0 0
2:35 pm 14:35 Sunny 90 32.2 61 16.2 38 38 S 15 24 29.74 1007 10 16.09344 0 0
2:55 pm 14:55 Sunny 89 31.7 61 16.1 39 39 S 15 24 29.74 1007 10 16.09344 0 0
3:15 pm 15:15 Sunny 90 32.2 60 15.4 36 36 SSW 18 30 29.74 1007 10 16.09344 0 0
3:35 pm 15:35 Sunny 89 31.4 60 15.7 39 39 S 15 24 29.74 1007 10 16.09344 0 0
3:55 pm 15:55 Sunny 91 32.7 59 15 34 34 S 17 28 29.74 1007 10 16.09344 0 0
4:15 pm 16:15 Sunny 90 32.3 59 14.8 35 35 S 15 24 29.74 1007 10 16.09344 0 0
4:35 pm 16:35 Sunny 91 32.6 59 14.8 34 34 S 17 28 29.71 1006 10 16.09344 0 0
4:55 pm 16:55 Sunny 91 33 58 14.4 32 32 S 12 19 29.71 1006 10 16.09344 0 0
5:15 pm 17:15 Sunny 92 33.3 59 15.1 33 33 S 18 30 29.68 1005 10 16.09344 0 0
5:35 pm 17:35 Sunny 92 33.1 58 14.2 32 32 S 14 22 29.71 1006 10 16.09344 0 0
5:55 pm 17:55 Sunny 92 33.1 57 14.1 32 32 S 15 24 29.71 1006 10 16.09344 0 0
6:15 pm 18:15 Sunny 91 33 58 14.5 33 33 SSW 8 13 29.71 1006 10 16.09344 0 0
6:35 pm 18:35 Sunny 91 33 58 14.5 33 33 S 14 22 29.71 1006 10 16.09344 0 0
6:55 pm 18:55 Sunny 91 32.9 58 14.4 33 33 S 16 26 29.71 1006 10 16.09344 0 0
7:15 pm 19:15 Sunny 91 32.6 57 14.1 33 33 S 14 22 29.68 1005 10 16.09344 0 0
7:35 pm 19:35 Sunny 90 32.2 59 14.9 35 35 S 12 19 29.71 1006 10 16.09344 0 0
7:55 pm 19:55 Sunny 89 31.7 59 15.1 37 37 S 8 13 29.71 1006 10 16.09344 0 0
8:15 pm 20:15 Sunny 87 30.7 59 14.8 38 38 S 8 13 29.74 1007 10 16.09344 0 0
8:35 pm 20:35 Sunny 85 29.3 60 15.6 43 43 S 7 11 29.77 1008 10 16.09344 0 0
8:55 pm 20:55 Sunny 83 28.4 61 16 47 47 S 5 7 29.77 1008 10 16.09344 0 0
9:15 pm 21:15 Clear 81 27.4 61 16.3 51 51 S 5 7 29.77 1008 10 16.09344 0 0
9:35 pm 21:35 Clear 80 26.5 62 16.6 55 55 S 5 7 29.77 1008 10 16.09344 0 0
9:55 pm 21:55 Clear 79 26 62 16.5 56 56 S 6 9 29.77 1008 10 16.09344 0 0
10:15 pm 22:15 Clear 79 26 62 16.5 56 56 S 6 9 29.77 1008 10 16.09344 0 0
10:35 pm 22:35 Clear 78 25.8 62 16.5 57 57 S 7 11 29.8 1009 10 16.09344 0 0
10:55 pm 22:55 Clear 78 25.6 62 16.7 58 58 S 8 13 29.8 1009 10 16.09344 0 0
11:15 pm 23:15 Clear 80 26.5 62 16.6 55 55 S 10 17 29.8 1009 10 16.09344 0 0
11:35 pm 23:35 Clear 79 26.1 62 16.5 56 56 S 13 20 29.83 1010 10 16.09344 0 0
11:55 pm 23:55 Clear 78 25.8 61 16.2 55 55 SSW 12 19 29.83 1010 10 16.09344 0 0

Powered by AerisWeather